Showing default

GONETS D1 4, 24728

Orbit data source: Space-Track

GONETS D1 4, 24728 is a payload satellite owned by Gonets (CIS) in LEO that was launched on Fri, 14 Feb 1997 UTC via a TSIKLON-3 launch vehicle from the Plesetsk Missile And Space Complex (PKMTR). Payload-class satellites include a variety of spacecraft equipped with specific instruments for various scientific and technological missions. These include communications satellites like Starlink; space stations such as the ISS; scientific satellites like the Hubble; Earth observation satellites from companies like Planet Labs, Umbra, and HawkEye 360; GPS; miniature CubeSats for education and research; and military/defense satellites.

Loading next visibility...
Identifier
24728, 1997-006D
Orbit
LEO
Country
Flag of CISCIS
Related business
Manufacturer
NPO PM
Mission
Non-operational Civil Communications
Bus & Motor
STRELA-3, Unknown motor
Mass
225 kg wet, 225 kg dry
Launch date (UTC)
1997-02-14 (29 years ago)
Launch vehicle
TSIKLON-3
Launch site
Plesetsk Missile And Space Complex (PKMTR)
Object type
Payload
Rocket body
Debris
Shape & HBR
Cyl + 1 Ant, 3.5 m
Radar Cross Section
1.798 m², Medium (>0.1 m² and < 1m²)

Expand to show TLE details & history
Last TLE update: 16 hours ago

TLE from 16 hours ago
0 GONETS D1 4
1 24728U 97006D   26127.85879235  .00000035  00000-0  13469-3 0  9994
2 24728  82.6029 262.0013 0006764 270.0264  90.0053 12.63922219348111
Epoch: 2026-05-07T20:36Z
TLE epoch observation values (Epoch: 2026-05-07T20:36:39.659Z)
Latitude
Longitude
87.13716°
Altitude
1,409.534 km
Speed
7.156 km/s
True Right ascension
17h 28m 00s
True Declination
0° 00' 00"
Sunlit
Object was in full shadow at epoch
Visualization orbit readout
Latitude
Unknown
Longitude
Unknown
Altitude
Unknown
Speed
Unknown
Apparent Right ascension
Unknown
Apparent Declination
Unknown
Sunlit
N/A
Visualization observer readout
Local Sidereal Time
20:51:08
Azimuth
Unknown
Elevation
Unknown
Doppler factor
Unknown
Orbital elements
Apogee altitude
1,409.379 km
Perigee altitude
1,398.851 km
Semi-major axis
7,782.252 km
Eccentricity
0.00068
Inclination
82.6029°
RAAN
262.0013°
Arg. of periapsis
270.0264°
True anomaly
90.08281°
Mean anomaly
90.0053°
Eccentric anomaly
90.04405°
Mean motion
3.16144 °/min
Orbital period
113.87 mins
BSTAR
0.00013469
Loading maneuver chart data...
Computing Atmospheric mass density...
Loading historical data...
Loading historical data...
Loading historical data...
Loading historical data...
Loading historical data...
Loading historical data...
Loading historical data...

Documentation

Showing up to 5 results
|